Weather History for Kansas City International, MO

Change the Weather History Date:

Wednesday, January 23, 2013

  Actual Average Record
Temperature  
Mean Temperature 30 °F 29 °F  
Max Temperature 46 °F 38 °F 73 °F (1967)
Min Temperature 13 °F 20 °F -9 °F (2003)
Degree Days  
Heating Degree Days 35 36  
Month to date heating degree days 758 828  
Since 1 July heating degree days 2596 2870  
Cooling Degree Days 0 0  
Month to date cooling degree days 0 0  
Year to date cooling degree days 0 0  
Moisture  
Dew Point 13 °F    
Average Humidity 55    
Maximum Humidity 73    
Minimum Humidity 36    
Precipitation  
Precipitation 0.00 in 0.04 in 1.70 in (1938)
Month to date precipitation 0.25 0.75  
Year to date precipitation 0.25 0.75  
Snow  
Snow 0.00 in 0.20 in 4.60 in (1939)
Month to date snowfall T 3.3  
Since 1 July snowfall 3.7 9.5  
Snow Depth 0.00 in    
Sea Level Pressure  
Sea Level Pressure 30.29 in    
Wind  
Wind Speed 9 mph (North)    
Max Wind Speed 17 mph    
Max Gust Speed 22 mph    
Visibility 10 miles    
Events      
T = Trace of Precipitation, MM = Missing Value Source: NWS Daily Summary

Daily Weather History Graph

Daily Weather History Graph

Search for Another Location

Airport:

Trip Planner

Search our weather history database for the weather conditions in past years. The results will help you decide how hot, cold, wet, or windy it might be!

Date:

Astronomy

Jan. 23, 2013 Rise Set
Actual Time 7:32 AM CST 5:29 PM CST
Civil Twilight 7:03 AM CST 5:58 PM CST
Nautical Twilight 6:31 AM CST 6:30 PM CST
Astronomical Twilight 5:59 AM CST 7:02 PM CST
Moon 2:40 PM CST 4:44 AM CST
Length of Visible Light 10h 54m
Length of Day
9h 56m
Waxing Gibbous, 89% of the Moon is Illuminated
Jan 23
Waxing Gibbous
Jan 26
Full
Feb 3
Last Quarter
Feb 10
New
Feb 17
First Quarter

Hourly Weather History & Observations

Time (CST) Temp. Windchill Dew Point Humidity Pressure Visibility Wind Dir Wind Speed Gust Speed Precip Events Conditions
12:53 AM 17.1 °F 7.6 °F 6.1 °F 62% 30.30 in 10.0 mi ESE 6.9 mph - N/A   Clear
1:53 AM 17.1 °F 6.6 °F 6.1 °F 62% 30.29 in 10.0 mi SE 8.1 mph - N/A   Clear
2:53 AM 16.0 °F 7.4 °F 6.1 °F 65% 30.28 in 10.0 mi ESE 5.8 mph - N/A   Clear
3:53 AM 17.1 °F 10.0 °F 6.1 °F 62% 30.28 in 10.0 mi ESE 4.6 mph - N/A   Clear
4:53 AM 16.0 °F 10.4 °F 6.1 °F 65% 30.26 in 10.0 mi ESE 3.5 mph - N/A   Clear
5:53 AM 15.1 °F 9.4 °F 6.1 °F 68% 30.26 in 10.0 mi SSE 3.5 mph - N/A   Clear
6:53 AM 12.9 °F 3.8 °F 5.0 °F 71% 30.25 in 10.0 mi SSE 5.8 mph - N/A   Clear
7:53 AM 14.0 °F 3.9 °F 7.0 °F 74% 30.26 in 9.0 mi South 6.9 mph - N/A   Scattered Clouds
8:53 AM 19.9 °F 12.1 °F 10.9 °F 68% 30.25 in 10.0 mi SSW 5.8 mph - N/A   Scattered Clouds
9:53 AM 28.0 °F 22.8 °F 14.0 °F 56% 30.26 in 7.0 mi WSW 4.6 mph - N/A   Scattered Clouds
10:53 AM 34.0 °F 27.2 °F 17.1 °F 50% 30.26 in 10.0 mi WSW 8.1 mph - N/A   Mostly Cloudy
11:53 AM 37.9 °F 32.1 °F 18.0 °F 45% 30.25 in 10.0 mi West 8.1 mph - N/A   Mostly Cloudy
12:53 PM 42.1 °F 36.6 °F 18.0 °F 38% 30.22 in 10.0 mi NW 9.2 mph - N/A   Scattered Clouds
1:53 PM 44.1 °F 39.5 °F 19.0 °F 37% 30.21 in 10.0 mi NW 8.1 mph - N/A   Scattered Clouds
2:53 PM 45.0 °F 41.2 °F 19.9 °F 37% 30.20 in 10.0 mi NW 6.9 mph - N/A   Scattered Clouds
3:53 PM 45.0 °F 39.3 °F 19.9 °F 37% 30.22 in 10.0 mi NNW 11.5 mph - N/A   Scattered Clouds
4:53 PM 39.9 °F 33.4 °F 18.0 °F 41% 30.24 in 10.0 mi North 10.4 mph - N/A   Mostly Cloudy
5:53 PM 36.0 °F 27.5 °F 19.0 °F 50% 30.28 in 10.0 mi North 12.7 mph - N/A   Mostly Cloudy
6:53 PM 32.0 °F 24.2 °F 18.0 °F 56% 30.32 in 10.0 mi North 9.2 mph - N/A   Mostly Cloudy
7:53 PM 30.9 °F 21.2 °F 16.0 °F 54% 30.35 in 10.0 mi North 12.7 mph - N/A   Mostly Cloudy
8:53 PM 28.0 °F 17.0 °F 14.0 °F 56% 30.38 in 10.0 mi North 13.8 mph - N/A   Mostly Cloudy
9:53 PM 26.1 °F 16.2 °F 14.0 °F 60% 30.41 in 10.0 mi North 10.4 mph - N/A   Mostly Cloudy
10:53 PM 25.0 °F 12.2 °F 12.9 °F 60% 30.42 in 10.0 mi NNE 16.1 mph 21.9 mph N/A   Overcast
11:53 PM 21.9 °F 10.4 °F 12.0 °F 66% 30.45 in 10.0 mi NNE 11.5 mph - N/A   Clear